Location: Newark
(50.4348°N, 30.5552°E)
Time: 11:57:18
(UTC+00:00)

Vanguard 3 - Pass Details

Date: 19 January 2020
Orbit: 508 x 3263 km, 33.3° (Epoch: 28 February)

Event Time Altitude Azimuth Distance (km) Brightness Sun altitude
Rises 14:40:34 0° 193° (SSW) 7,199 12.7 -2.6°
Reaches altitude 10° 14:48:14 10° 177° (S) 6,164 12.0 -3.6°
Maximum altitude 14:58:22 17° 145° (SE) 5,253 11.2 -5.1°
Drops below altitude 10° 15:07:10 10° 112° (ESE) 5,302 10.9 -6.3°
Enters shadow 15:12:30 - 95° (E) 5,803 11.0 -7.1°
